Location: Favalello
(42.2939°N, 9.2706°E)
Time: 07:03:48
(UTC+00:00)

CSL-04 Rocket - Pass Details

Date: 06 December 2019
Orbit: 807 x 859 km, 99.0° (Epoch: 17 January)

Event Time Altitude Azimuth Distance (km) Brightness Sun altitude
Rises 17:29:58 0° 152° (SSE) 3,315 6.7 -17.8°
Reaches altitude 10° 17:32:19 10° 148° (SSE) 2,385 5.9 -18.2°
Maximum altitude 17:37:27 56° 71° (ENE) 955 3.6 -19.1°
Drops below altitude 10° 17:42:37 10° 354° (N) 2,401 6.0 -20.1°
Sets 17:45:00 0° 351° (N) 3,340 6.8 -20.5°
